Panama City, FL

10:38 AM CDT on June 25, 2017 (GMT -0500)
Northwest Florida Beaches International

Weather History for KECP - January, 2014

Change the Weather History Date:

Monday, January 13, 2014

  Actual Average Record
Temperature  
Mean Temperature 55 °F -  
Max Temperature 66 °F - 80 °F (2017)
Min Temperature 43 °F - 24 °F (2011)
Degree Days  
Heating Degree Days 10    
Cooling Degree Days 0    
Growing Degree Days 4 (Base 50)    
Moisture  
Dew Point 52 °F    
Average Humidity 80    
Maximum Humidity 96    
Minimum Humidity 63    
Precipitation  
Precipitation 1.35 in - 1.35 in (2014)
Month to date precipitation  
Year to date precipitation  
Sea Level Pressure  
Sea Level Pressure 30.04 in    
Wind  
Wind Speed 4 mph (East)    
Max Wind Speed 24 mph    
Max Gust Speed 28 mph    
Visibility 7 miles    
Events Rain    
T = Trace of Precipitation, MM = Missing Value Source: NWS Daily Summary

Daily Weather History Graph

Daily Weather History Graph

Search for Another Location

Airport or City:

Trip Planner

Search our weather history database for the weather conditions in past years. The results will help you decide how hot, cold, wet, or windy it might be!

Date:

Astronomy

Jan. 13, 2014 Rise Set
Actual Time 7:40 AM EST 6:03 PM EST
Civil Twilight 7:14 AM EST 6:29 PM EST
Nautical Twilight 6:45 AM EST 6:58 PM EST
Astronomical Twilight 6:16 AM EST 7:27 PM EST
Moon 4:16 PM EST (1/13) 5:30 AM EST (1/13)
Length of Visible Light 11h 14m
Length of Day
10h 22m
Waxing Gibbous, 95% of the Moon is Illuminated
Jan 13
Waxing Gibbous
Jan 15
Full
Jan 24
Last Quarter
Jan 30
New
Feb 6
First Quarter

Hourly Weather History & Observations

Time (EST) Temp. Windchill Dew Point Humidity Pressure Visibility Wind Dir Wind Speed Gust Speed Precip Events Conditions
12:53 AM 43.0 °F - 41.0 °F 93% 30.19 in 10.0 mi Calm Calm - N/A   Clear
1:53 AM 44.1 °F - 41.0 °F 89% 30.19 in 10.0 mi Calm Calm - N/A   Clear
2:53 AM 45.0 °F 43.5 °F 42.1 °F 90% 30.17 in 10.0 mi NNE 3.5 mph - N/A   Clear
3:53 AM 46.0 °F - 43.0 °F 89% 30.17 in 10.0 mi Calm Calm - N/A   Clear
4:53 AM 44.1 °F 41.5 °F 41.0 °F 89% 30.15 in 10.0 mi NE 4.6 mph - N/A   Clear
5:53 AM 45.0 °F 40.6 °F 41.0 °F 86% 30.13 in 10.0 mi East 8.1 mph - N/A   Clear
6:53 AM 45.0 °F 43.5 °F 41.0 °F 86% 30.13 in 10.0 mi East 3.5 mph - N/A   Clear
7:53 AM 45.0 °F 43.5 °F 41.0 °F 86% 30.14 in 10.0 mi ENE 3.5 mph - N/A   Clear
8:53 AM 48.9 °F - 43.0 °F 80% 30.15 in 10.0 mi East 3.5 mph - N/A   Clear
9:53 AM 53.1 °F - 46.0 °F 77% 30.16 in 10.0 mi East 3.5 mph - N/A   Clear
10:53 AM 60.1 °F - 48.9 °F 67% 30.14 in 10.0 mi SE 5.8 mph - N/A   Clear
11:53 AM 62.1 °F - 50.0 °F 65% 30.13 in 10.0 mi SE 6.9 mph - N/A   Partly Cloudy
12:53 PM 64.0 °F - 52.0 °F 65% 30.09 in 10.0 mi ESE 6.9 mph - N/A   Clear
1:53 PM 64.9 °F - 51.1 °F 61% 30.03 in 10.0 mi ESE 6.9 mph - N/A   Mostly Cloudy
2:53 PM 63.0 °F - 55.0 °F 75% 29.98 in 3.0 mi East 8.1 mph - 0.04 in Rain Light Rain
3:27 PM 60.8 °F - 57.2 °F 88% 29.96 in 1.8 mi SW 4.6 mph - 0.08 in Rain Heavy Rain
3:53 PM 61.0 °F - 57.9 °F 90% 30.00 in 10.0 mi SSW 4.6 mph - 0.13 in Rain Light Rain
4:00 PM 60.8 °F - 57.2 °F 88% 29.96 in 10.0 mi North - - 0.00 in   Overcast
4:49 PM 60.8 °F - 57.2 °F 88% 30.02 in 2.5 mi Calm Calm - 0.06 in Rain Rain
4:53 PM 60.1 °F - 57.0 °F 90% 30.06 in 1.0 mi North - - 0.10 in Rain Heavy Rain
5:39 PM 59.0 °F - 57.2 °F 94% 29.98 in 2.0 mi East 6.9 mph - 0.26 in Rain Rain
5:53 PM 59.0 °F - 57.0 °F 93% 29.99 in 2.0 mi ENE 4.6 mph - 0.27 in Rain Light Rain
5:58 PM 59.0 °F - 57.2 °F 94% 29.95 in 2.5 mi East 6.9 mph - 0.00 in Rain Light Rain
6:40 PM 59.0 °F - 57.2 °F 94% 29.95 in 10.0 mi ENE 4.6 mph - 0.02 in Rain Light Rain
6:53 PM 59.0 °F - 57.0 °F 93% 29.99 in 9.0 mi East 8.1 mph - 0.03 in Rain Light Rain
7:13 PM 59.0 °F - 57.2 °F 94% 29.94 in 6.0 mi ENE 8.1 mph - 0.04 in Rain Rain
7:53 PM 59.0 °F - 57.0 °F 93% 30.01 in 6.0 mi ESE 8.1 mph - 0.13 in Rain Rain
8:42 PM 59.0 °F - 57.2 °F 94% 29.94 in 2.0 mi East 8.1 mph - 0.15 in Rain Heavy Rain
8:53 PM 59.0 °F - 57.0 °F 93% 29.97 in 2.0 mi East 5.8 mph - 0.20 in Rain Rain
9:53 PM 59.0 °F - 57.9 °F 96% 29.98 in 7.0 mi ESE 3.5 mph - 0.12 in Rain Rain
10:16 PM 59.0 °F - 57.2 °F 94% 29.94 in 5.0 mi ESE 3.5 mph - 0.06 in Rain Rain
10:50 PM 59.0 °F - 57.2 °F 94% 29.93 in 5.0 mi Calm Calm - 0.13 in Rain Rain
10:51 PM 59.0 °F - 57.9 °F 96% 29.97 in 5.0 mi Calm Calm - 0.13 in Rain Rain
11:15 PM 59.0 °F - 57.2 °F 94% 29.93 in 5.0 mi Calm Calm - 0.07 in Rain Rain
11:53 PM 60.1 °F - 57.9 °F 93% 29.94 in 2.0 mi SE 5.8 mph - 0.19 in Rain Rain